MET'MAP v2.0
soon released !

Expected late october,
this new version will be
more efficient, smarter,
and hosted on a brand new
server x3 powerfull...
...and still free !


Not compatible ?
Try the mobile version !

LOG IN : | Subscribe | Disclaimer | Who is Orbifly ? |
ICAO code :
Legend : VFR Marginal VFR IFR Intensive IFR Very Intensive IFR
Visi :
Ceiling :
>= 8 km
>= 3000ft
5 to 8 km
1000 to 3000 ft
1500m to 5 km
500 to 1000 ft
800 to 1500m
200 to 500 ft
< 800m
< 200 ft

METAR - LFPT Pontoise - 10 Apr 2020 04:55 UTC
Data Sources :     NOAA   


- Airport Elevation : 325 ft
- IATA code : POX
- No reported NOTAMs.


LFPT - Pontoise

Latest METAR recorded : 2020/04/10 02:30 LFPT 100230Z AUTO VRB02KT CAVOK 09/06 Q1023
NO TAF
ATIS : +33 1 30 30 52 08


MET'MAP, your aeronautical weather chart ! - Copyright ORBIFLY December 2007

Programming & Development : Alexandra Zaïnal
Co-Developer : Marc-Olivier Méhu
Technical & hardware support : Manuel Goepfert
Concept & Financing : Baudouin d'Aumeries